Tracking 20942 objects as of 14-Jul-2020
HD Live streaming from Space Station
objects crossing your sky now

RADUGA 26

Track RADUGA 26 now!
RADUGA 26 is classified as:


NORAD ID: 21016
Int'l Code: 1990-112A
Perigee: 35,746.8 km
Apogee: 35,814.7 km
Inclination: 14.6 °
Period: 1,435.4 minutes
Semi major axis: 42151 km
RCS: 2.5118 m2 (large)
Launch date: December 20, 1990
Source: Commonwealth of Independent States (former USSR) (CIS)
Launch site: TYURATAM MISSILE AND SPACE COMPLEX (TTMTR)
aabbcc
Your satellite tracking list
Your tracking list is empty




NASA's NSSDC Master Catalog

Two Line Element Set (TLE):
1 21016U 90112A   20195.48206941 -.00000039 +00000-0 +00000-0 0  9997
2 21016 014.6473 354.9330 0008047 049.0909 127.5986 01.00318164108533
Source of the keplerian elements: AFSPC